CZ-4 DEB, 26150

Orbit data source: Space-Track

CZ-4 DEB, 26150 is space debris in SSO originally from a launch on Thu, 14 Oct 1999 UTC launched from the Taiyaun Space Center, China (TSC). Debris objects in space refer to the collection of defunct objects orbiting the Earth. Examples of debris include non-operational satellites, rocket bodies, and fragments generated from explosions, collisions, or faulty payload assembly.

Loading next visibility...
Identifier
26150, 1999-057AL
Orbit
SSO
Last TLE update
1 day ago
Origin
Manufacturer
Unknown
Mission
Spacecraft
Bus & Motor
Unknown
Mass
Unknown
Launch date (UTC)
1999-10-14 (26 years ago)
Launch vehicle
Unknown
Launch site
Taiyaun Space Center, China (TSC)
Object type
Payload
Rocket body
Debris
Shape & HBR
Unknown
Radar Cross Section
Small (<0.1 m²)

Expand to show TLE details & history

TLE from 1 day ago
0 CZ-4 DEB
1 26150U 99057AL  25198.73824162  .00000552  00000-0  36316-3 0  9996
2 26150  99.1160 283.6732 0341499 253.4752 275.6379 13.81041466269214
Epoch: 2025-07-17T17:43Z
TLE epoch observation values (Epoch: 2025-07-17T17:43:04.075Z)
Latitude
14.57709°
Longitude
-95.51446°
Altitude
946.22 km
Speed
7.388 km/s
True Right ascension
07h 04m 12s
True Declination
14° 29' 45"
Sunlit
Object was in daylight at epoch
Visualization orbit readout
Latitude
10.92046°
Longitude
-94.93683°
Altitude
916.028 km
Speed
7.418 km/s
Apparent Right ascension
04h 31m 10s
Apparent Declination
-19° 41' 46"
Sunlit
Object is in daylight
Visualization observer readout
Local Sidereal Time
12:05:13
Azimuth
268.842° W
Elevation
-30.29°
Doppler factor
1
Orbital elements
Apogee altitude
1,207.929 km
Perigee altitude
706.912 km
Semi-major axis
7,335.558 km
Eccentricity
0.03415
Inclination
99.116°
RAAN
283.6732°
Arg. of periapsis
253.4752°
True anomaly
271.73018°
Mean anomaly
275.6379°
Eccentric anomaly
273.6853°
Mean motion
3.45457 °/min
Orbital period
104.21 mins
BSTAR
0.00036316
Loading maneuver chart data...
Loading SW <> Apogee altitude chart data...
Loading historical data...
Loading historical data...
Loading historical data...
Loading historical data...
Loading historical data...
Loading historical data...
Loading historical data...
|